TimeEST,TemperatureF,Dew PointF,Humidity,Sea Level PressureIn,VisibilityMPH,Wind Direction,Wind SpeedMPH,Gust SpeedMPH,PrecipitationIn,Events,Conditions,WindDirDegrees,DateUTC
12:53 AM,27.0,21.9,81,30.15,10.0,SSW,3.5,-,N/A,,Overcast,200,2013-12-31 05:53:00
1:53 AM,27.0,23.0,85,30.14,10.0,SW,3.5,-,N/A,,Overcast,220,2013-12-31 06:53:00
2:53 AM,28.0,24.1,85,30.14,10.0,SW,6.9,-,N/A,,Overcast,220,2013-12-31 07:53:00
3:03 AM,28.4,23.0,80,30.10,10.0,SW,8.1,-,N/A,,Overcast,220,2013-12-31 08:03:00
3:53 AM,28.0,21.9,78,30.14,10.0,SW,5.8,-,N/A,,Overcast,220,2013-12-31 08:53:00
4:38 AM,28.4,21.2,74,30.08,4.0,SW,8.1,-,N/A,,Haze,230,2013-12-31 09:38:00
4:49 AM,26.6,23.0,86,30.08,6.0,SW,8.1,-,0.00,,Overcast,220,2013-12-31 09:49:00
4:53 AM,27.0,23.0,85,30.13,9.0,Variable,5.8,-,0.00,,Overcast,0,2013-12-31 09:53:00
5:03 AM,28.4,21.2,74,30.08,10.0,SW,9.2,-,N/A,,Overcast,220,2013-12-31 10:03:00
5:12 AM,28.4,21.2,74,30.09,10.0,SW,6.9,-,N/A,,Overcast,220,2013-12-31 10:12:00
5:21 AM,28.4,21.2,74,30.09,8.0,SW,9.2,-,N/A,,Overcast,220,2013-12-31 10:21:00
5:48 AM,26.6,23.0,86,30.09,2.5,SW,6.9,-,0.00,Snow,Light Snow,220,2013-12-31 10:48:00
5:53 AM,27.0,21.9,81,30.14,3.0,SW,9.2,-,0.00,Snow,Light Snow,220,2013-12-31 10:53:00
6:07 AM,26.6,21.2,80,30.10,4.0,SW,10.4,26.5,0.00,Snow,Light Snow,220,2013-12-31 11:07:00
6:53 AM,27.0,19.9,75,30.14,10.0,Variable,6.9,18.4,0.00,,Overcast,0,2013-12-31 11:53:00
7:53 AM,27.0,19.0,72,30.14,10.0,SW,5.8,-,N/A,,Overcast,220,2013-12-31 12:53:00
8:53 AM,28.0,18.0,66,30.15,10.0,SW,8.1,-,N/A,,Overcast,230,2013-12-31 13:53:00
9:51 AM,28.4,17.6,64,30.14,10.0,SW,11.5,17.3,N/A,,Overcast,230,2013-12-31 14:51:00
9:53 AM,28.0,18.0,66,30.19,10.0,WSW,10.4,20.7,N/A,,Overcast,240,2013-12-31 14:53:00
10:07 AM,28.4,17.6,64,30.15,10.0,SW,9.2,20.7,N/A,,Overcast,220,2013-12-31 15:07:00
10:53 AM,28.0,18.0,66,30.22,7.0,WSW,11.5,20.7,N/A,,Overcast,240,2013-12-31 15:53:00
11:01 AM,28.4,17.6,64,30.18,6.0,WSW,11.5,23.0,N/A,,Haze,250,2013-12-31 16:01:00
11:13 AM,28.4,17.6,64,30.19,7.0,WSW,11.5,21.9,N/A,,Overcast,240,2013-12-31 16:13:00
11:53 AM,27.0,19.0,72,30.26,5.0,WSW,10.4,20.7,N/A,,Haze,250,2013-12-31 16:53:00
12:05 PM,26.6,19.4,74,30.21,2.0,WSW,11.5,18.4,0.00,Snow,Light Snow,240,2013-12-31 17:05:00
12:23 PM,26.6,19.4,74,30.23,5.0,Variable,6.9,20.7,0.00,,Haze,0,2013-12-31 17:23:00
12:31 PM,26.6,19.4,74,30.24,1.8,SW,12.7,20.7,0.00,Snow,Light Snow,230,2013-12-31 17:31:00
12:41 PM,26.6,19.4,74,30.24,2.0,WSW,11.5,21.9,0.00,Snow,Light Snow,240,2013-12-31 17:41:00
12:48 PM,26.6,19.4,74,30.24,5.0,SW,9.2,21.9,0.00,,Haze,230,2013-12-31 17:48:00
12:53 PM,26.1,19.0,75,30.30,4.0,Variable,6.9,-,0.00,,Haze,0,2013-12-31 17:53:00
1:11 PM,26.6,19.4,74,30.25,2.5,WSW,9.2,17.3,0.00,Snow,Light Snow,240,2013-12-31 18:11:00
1:30 PM,26.6,19.4,74,30.26,4.0,Variable,5.8,18.4,0.00,Snow,Light Snow,0,2013-12-31 18:30:00
1:42 PM,26.6,19.4,74,30.25,5.0,Variable,5.8,-,0.00,Snow,Light Snow,0,2013-12-31 18:42:00
1:53 PM,27.0,18.0,69,30.30,9.0,West,11.5,17.3,0.00,Snow,Light Snow,260,2013-12-31 18:53:00
2:13 PM,26.6,17.6,69,30.25,9.0,SW,9.2,-,0.00,Snow,Light Snow,230,2013-12-31 19:13:00
2:22 PM,26.6,17.6,69,30.25,9.0,WSW,8.1,17.3,0.00,Snow,Light Snow,250,2013-12-31 19:22:00
2:53 PM,27.0,18.0,69,30.30,9.0,Variable,6.9,-,0.00,Snow,Light Snow,0,2013-12-31 19:53:00
3:53 PM,27.0,17.1,66,30.32,9.0,Variable,4.6,-,0.00,,Overcast,0,2013-12-31 20:53:00
4:53 PM,27.0,15.1,61,30.33,10.0,Variable,6.9,-,N/A,,Overcast,0,2013-12-31 21:53:00
5:53 PM,26.1,16.0,66,30.34,10.0,SW,5.8,-,N/A,,Overcast,230,2013-12-31 22:53:00
6:53 PM,26.1,16.0,66,30.35,10.0,SW,4.6,-,N/A,,Clear,220,2013-12-31 23:53:00
7:53 PM,25.0,16.0,69,30.36,10.0,SSW,4.6,-,N/A,,Clear,200,2014-01-01 00:53:00
8:53 PM,25.0,16.0,69,30.36,10.0,SSW,4.6,-,N/A,,Clear,200,2014-01-01 01:53:00
9:53 PM,24.1,17.1,75,30.36,10.0,South,4.6,-,N/A,,Mostly Cloudy,180,2014-01-01 02:53:00
10:53 PM,27.0,17.1,66,30.33,10.0,SSW,8.1,-,N/A,,Overcast,200,2014-01-01 03:53:00
11:53 PM,28.0,18.0,66,30.33,10.0,South,4.6,-,N/A,,Overcast,190,2014-01-01 04:53:00